Change the Weather History Date:

Saturday, May 24, 2014

  Actual Average Record
Temperature  
Mean Temperature 60 °F -  
Max Temperature 68 °F 74 °F 93 °F (1992)
Min Temperature 53 °F 50 °F 35 °F (1963)
Degree Days  
Heating Degree Days 4    
Growing Degree Days 10 (Base 50)    
Moisture  
Dew Point 51 °F    
Average Humidity 79    
Maximum Humidity 93    
Minimum Humidity 49    
Precipitation  
Precipitation 0.02 in - - ()
Sea Level Pressure  
Sea Level Pressure 30.00 in    
Wind  
Wind Speed 6 mph (North)    
Max Wind Speed 12 mph    
Max Gust Speed -    
Visibility 10 miles    
Events Rain    
Averages and records for this station are not official NWS values.
T = Trace of Precipitation, MM = Missing Value Source: NWS Daily Summary

Daily Weather History Graph

Daily Weather History Graph

Search for Another Location

Airport or City:

Trip Planner

Search our weather history database for the weather conditions in past years. The results will help you decide how hot, cold, wet, or windy it might be!

Date:

Astronomy

May. 24, 2014 Rise Set
Actual Time 5:23 AM EDT 8:12 PM EDT
Civil Twilight 4:50 AM EDT 8:45 PM EDT
Nautical Twilight 4:09 AM EDT 9:26 PM EDT
Astronomical Twilight 3:21 AM EDT 10:14 PM EDT
Moon 2:54 AM EDT (5/24) 4:03 PM EDT (5/24)
Length of Visible Light 15h 54m
Length of Day
14h 49m
Waning Crescent, 18% of the Moon is Illuminated
May 24
Waning Crescent
May 28
New
Jun 5
First Quarter
Jun 13
Full
Jun 19
Last Quarter

Hourly Weather History & Observations

Time (EDT) Temp. Dew Point Humidity Pressure Visibility Wind Dir Wind Speed Gust Speed Precip Events Conditions
12:35 AM 55.9 °F 53.1 °F 90% 29.94 in 10.0 mi East 5.8 mph - 0.03 in Rain Light Rain
1:03 AM 55.9 °F 53.1 °F 90% 29.94 in 7.0 mi ENE 5.8 mph - 0.01 in Rain Light Rain
1:53 AM 55.0 °F 52.0 °F 89% 29.94 in 10.0 mi NNE 8.1 mph - 0.01 in   Overcast
2:53 AM 54.0 °F 52.0 °F 93% 29.94 in 10.0 mi North 8.1 mph - 0.01 in   Overcast
3:53 AM 53.1 °F 51.1 °F 93% 29.95 in 10.0 mi NNE 4.6 mph - N/A   Overcast
4:17 AM 53.1 °F 51.1 °F 93% 29.96 in 10.0 mi North 5.8 mph - N/A   Overcast
4:30 AM 53.1 °F 51.1 °F 93% 29.96 in 10.0 mi North 5.8 mph - N/A   Overcast
4:46 AM 53.1 °F 51.1 °F 93% 29.97 in 10.0 mi North 5.8 mph - N/A   Overcast
4:53 AM 53.1 °F 51.1 °F 93% 29.97 in 10.0 mi North 8.1 mph - N/A   Overcast
5:53 AM 54.0 °F 51.1 °F 90% 29.99 in 10.0 mi North 8.1 mph - N/A   Overcast
6:43 AM 54.0 °F 51.1 °F 90% 30.01 in 8.0 mi North 6.9 mph - 0.00 in Rain Light Rain
6:53 AM 54.0 °F 51.1 °F 90% 30.01 in 8.0 mi North 5.8 mph - 0.00 in Rain Light Rain
7:05 AM 54.0 °F 52.0 °F 93% 30.01 in 10.0 mi North 6.9 mph - 0.00 in   Overcast
7:36 AM 55.9 °F 52.0 °F 87% 30.01 in 10.0 mi NNE 10.4 mph - 0.00 in   Overcast
7:53 AM 55.9 °F 51.1 °F 84% 30.02 in 10.0 mi NNE 11.5 mph - 0.00 in   Overcast
8:38 AM 57.0 °F 51.1 °F 81% 30.03 in 10.0 mi North 10.4 mph - N/A   Overcast
8:50 AM 57.2 °F 51.8 °F 82% 30.03 in 10.0 mi North 6.9 mph - N/A   Overcast
8:53 AM 57.0 °F 52.0 °F 83% 30.03 in 10.0 mi NNE 10.4 mph - N/A   Overcast
9:53 AM 59.0 °F 51.1 °F 75% 30.03 in 10.0 mi North 11.5 mph - N/A   Overcast
10:53 AM 61.0 °F 51.1 °F 70% 30.04 in 10.0 mi North 9.2 mph - N/A   Overcast
11:53 AM 62.1 °F 52.0 °F 70% 30.04 in 10.0 mi NNW 11.5 mph - N/A   Overcast
12:53 PM 63.0 °F 51.1 °F 65% 30.04 in 10.0 mi NNW 9.2 mph - N/A   Overcast
1:53 PM 64.0 °F 48.9 °F 58% 30.02 in 10.0 mi WNW 4.6 mph - N/A   Overcast
2:53 PM 64.9 °F 48.9 °F 56% 30.01 in 10.0 mi Calm Calm - N/A   Overcast
3:53 PM 66.0 °F 48.9 °F 54% 30.00 in 10.0 mi Calm Calm - N/A   Scattered Clouds
4:53 PM 68.0 °F 48.0 °F 49% 30.00 in 10.0 mi Calm Calm - N/A   Scattered Clouds
5:53 PM 66.0 °F 48.9 °F 54% 30.00 in 10.0 mi Calm Calm - N/A   Mostly Cloudy
7:53 PM 64.9 °F 51.1 °F 61% 30.02 in 10.0 mi Calm Calm - 0.00 in Rain Light Rain
8:53 PM 64.0 °F 52.0 °F 65% 30.04 in 10.0 mi West 4.6 mph - 0.00 in   Overcast
9:53 PM 62.1 °F 53.1 °F 72% 30.05 in 10.0 mi Calm Calm - N/A   Mostly Cloudy
10:53 PM 59.0 °F 55.0 °F 87% 30.05 in 10.0 mi Calm Calm - N/A   Overcast
11:53 PM 57.0 °F 54.0 °F 89% 30.06 in 10.0 mi Calm Calm - N/A   Clear